Location: *
(28.3744°N, 81.5492°W)
Time: 15:04:11
(UTC+00:00)

Cosmos 1766 - Pass Details

Date: 15 June 2025
Orbit: 443 x 454 km, 82.5° (Epoch: 15 July)

Event Time Altitude Azimuth Distance (km) Brightness Sun altitude
Rises 01:07:27 0° 355° (N) 2,446 7.2 -9.0°
Reaches altitude 10° 01:09:31 10° 356° (N) 1,574 6.2 -9.3°
Maximum altitude 01:12:57 82° 83° (E) 456 2.8 -10.0°
Drops below altitude 10° 01:16:22 10° 173° (S) 1,572 5.3 -10.6°
Enters shadow 01:17:08 - 173° (S) 1,890 5.7 -10.7°
